Weather History for KLHQ - September, 2011

Change the Weather History Date:

Friday, September 16, 2011

  Actual Average Record
Temperature  
Mean Temperature 50 °F -  
Max Temperature 63 °F 76 °F 98 °F (1939)
Min Temperature 39 °F 51 °F 35 °F (2007)
Degree Days  
Heating Degree Days 14    
Moisture  
Dew Point 42 °F    
Average Humidity 79    
Maximum Humidity 97    
Minimum Humidity 53    
Precipitation  
Precipitation 0.02 in - - ()
Sea Level Pressure  
Sea Level Pressure 30.35 in    
Wind  
Wind Speed 2 mph (ENE)    
Max Wind Speed 12 mph    
Max Gust Speed 18 mph    
Visibility 8 miles    
Events      
Averages and records for this station are not official NWS values.
T = Trace of Precipitation, MM = Missing Value Source: NWS Daily Summary

Daily Weather History Graph

Daily Weather History Graph

Search for Another Location

Airport or City:

Trip Planner

Search our weather history database for the weather conditions in past years. The results will help you decide how hot, cold, wet, or windy it might be!

Date:

Astronomy

Sep. 16, 2011 Rise Set
Actual Time 7:12 AM EDT 7:38 PM EDT
Civil Twilight 6:45 AM EDT 8:05 PM EDT
Nautical Twilight 6:13 AM EDT 8:36 PM EDT
Astronomical Twilight 5:40 AM EDT 9:09 PM EDT
Moon 9:28 PM EDT (9/16) 11:15 AM EDT (9/16)
Length of Visible Light 13h 19m
Length of Day
12h 25m
Waning Gibbous, 84% of the Moon is Illuminated
Sep 16
Waning Gibbous
Sep 20
Last Quarter
Sep 27
New
Oct 3
First Quarter
Oct 11
Full

Hourly Weather History & Observations

Time (EDT) Temp. Dew Point Humidity Pressure Visibility Wind Dir Wind Speed Gust Speed Precip Events Conditions
1:53 AM 42.1 °F 39.0 °F 89% 30.35 in 10.0 mi Calm Calm - N/A   Clear
3:13 AM 39.2 °F 37.4 °F 93% 30.34 in 2.0 mi Calm Calm - N/A   Clear
3:36 AM 39.2 °F 37.4 °F 93% 30.33 in 1.0 mi Calm Calm - N/A   Clear
3:42 AM 39.2 °F 37.4 °F 93% 30.33 in 2.0 mi Calm Calm - N/A   Clear
3:53 AM 39.0 °F 37.9 °F 96% 30.34 in 1.8 mi Calm Calm - N/A   Clear
3:57 AM 39.2 °F 37.4 °F 93% 30.33 in 2.5 mi Calm Calm - N/A   Clear
4:05 AM 39.2 °F 37.4 °F 93% 30.33 in 5.0 mi Calm Calm - N/A   Clear
4:53 AM 39.9 °F 37.9 °F 93% 30.34 in 10.0 mi Calm Calm - N/A   Clear
5:53 AM 41.0 °F 39.0 °F 93% 30.35 in 5.0 mi Calm Calm - N/A   Clear
6:53 AM 42.1 °F 39.9 °F 92% 30.37 in 7.0 mi Calm Calm - N/A   Clear
7:53 AM 43.0 °F 42.1 °F 97% 30.39 in 10.0 mi Calm Calm - 0.01 in   Clear
8:53 AM 46.9 °F 44.1 °F 90% 30.40 in 10.0 mi Calm Calm - N/A   Clear
9:53 AM 52.0 °F 46.9 °F 83% 30.39 in 10.0 mi Calm Calm - N/A   Clear
10:53 AM 55.0 °F 44.1 °F 67% 30.40 in 10.0 mi East 6.9 mph - N/A   Clear
11:53 AM 55.9 °F 42.1 °F 60% 30.40 in 10.0 mi East 3.5 mph - N/A   Clear
12:53 PM 57.9 °F 45.0 °F 62% 30.38 in 10.0 mi ESE 6.9 mph - N/A   Clear
1:53 PM 60.1 °F 44.1 °F 55% 30.38 in 10.0 mi East 8.1 mph - N/A   Clear
2:53 PM 60.1 °F 44.1 °F 55% 30.35 in 10.0 mi ENE 11.5 mph 17.3 mph N/A   Clear
3:53 PM 62.1 °F 46.0 °F 56% 30.33 in 10.0 mi East 9.2 mph 18.4 mph 0.01 in   Partly Cloudy
4:53 PM 62.1 °F 45.0 °F 53% 30.32 in 10.0 mi ENE 9.2 mph - N/A   Partly Cloudy
5:53 PM 59.0 °F 44.1 °F 58% 30.31 in 10.0 mi ENE 6.9 mph - N/A   Clear
6:53 PM 57.9 °F 46.0 °F 65% 30.31 in 10.0 mi East 4.6 mph - N/A   Clear
7:53 PM 54.0 °F 46.0 °F 75% 30.30 in 10.0 mi East 4.6 mph - N/A   Clear
8:53 PM 54.0 °F 46.0 °F 75% 30.30 in 10.0 mi East 4.6 mph - N/A   Clear
10:53 PM 52.0 °F 46.9 °F 83% 30.30 in 10.0 mi NE 3.5 mph - N/A   Clear
11:53 PM 51.1 °F 46.9 °F 86% 30.30 in 10.0 mi NE 4.6 mph - N/A   Clear